Regional Weather Roundup
Issued by NWS Newport/Morehead, NC

Home | Current Version | Previous Version | Text Only | Print | Product List | Glossary On
Versions: 1 2 3 4 5 6 7 8 9 10 11 12 13 14 15 16 17 18 19 20 21 22 23 24 25 26 27 28 29 30 31 32 33 34 35 36 37 38 39 40 41 42 43 44 45 46 47 48 49 50
000
ASUS42 KMHX 081224
RWRMHX
WEATHER ROUNDUP FOR EASTERN NORTH CAROLINA
NATIONAL WEATHER SERVICE NEWPORT/MOREHEAD CITY NC
700 AM EST THU DEC 08 2016

NOTE: "FAIR" INDICATES FEW OR NO CLOUDS BELOW 12,000 FEET
WITH NO SIGNIFICANT WEATHER AND/OR OBSTRUCTIONS TO VISIBILITY

NCZ015>017-031-032-045>047-102-103-081300-
NORTH COAST

CITY           SKY/WX    TMP DP  RH WIND       PRES   REMARKS
EDENTON        CLOUDY    50  46  85 CALM      30.04F
ELIZABETH CITY CLOUDY    46  45  96 S3        30.05S
KITTY HAWK     PTSUNNY   46  46 100 CALM      30.04S
MANTEO         MOCLDY    42  42 100 CALM      30.06S FOG

$$

NCZ045>047-081-094-103-104-081300-
CENTRAL COAST

CITY           SKY/WX    TMP DP  RH WIND       PRES   REMARKS
FRISCO         NOT AVBL

$$

NCZ095-097-098-100-101-081300-
SOUTHERN COAST

CITY           SKY/WX    TMP DP  RH WIND       PRES   REMARKS
BEAUFORT       CLOUDY    52  51  97 CALM      30.05S
CEDAR ISLAND   NOT AVBL
JACKSONVILLE   CLOUDY    49  49 100 W6        30.05S
PINEY ISLAND   CLOUDY   N/A N/A N/A E5        30.04
WILMINGTON     CLOUDY    48  48 100 W10       30.06F


$$

NCZ011>013-027>030-043-044-078>080-089-090>093-098-081300-
COASTAL PLAIN

CITY           SKY/WX    TMP DP  RH WIND       PRES   REMARKS
AHOSKIE        CLOUDY    46  44  93 CALM      30.04S
CLINTON        CLOUDY    49  49 100 CALM      30.05R FOG
ELIZABETHTOWN    N/A     48  48 100 SW3       30.05S FOG
GOLDSBORO      CLOUDY    50  50 100 CALM      30.02S
GREENVILLE     CLOUDY    48  46  93 CALM      30.05F
HAVELOCK       CLOUDY    48  47  96 CALM      30.05F
KENANSVILLE    NOT AVBL
KINSTON        CLOUDY    50  46  87 S3        30.04S
NEW BERN       CLOUDY    49  47  93 S5        30.05S
RICHLANDS      CLOUDY    46  45  96 S5        30.05S
ROCKY MOUNT    CLOUDY    47  47 100 CALM      30.04S
WASHINGTON       N/A     46  45  97 CALM      30.03F
WHITEVILLE     CLOUDY    49  48  96 CALM      30.05S FOG

$$

AMZ130-135-150-152-154-156-158-170-250-252-270-ANZ085-086-088-633-658-670-081300-
MARINE OBSERVATIONS

STATION/POSITION TIME  TEMP    WIND        PRES    WAVE   SWELL
                       AIR SEA DIR/SP/G            HT/PER HT/PER
                 (UTC) (F)     (DEG/KT/KT) (MB)    (FT/S) (FT/S)
CHESAPEAKE LIGHT NOT AVBL
64 E VA BEACH    1150   52 58  350/  4/  6 1016.8    4/10   5/10
DUCK             1200   49 53  200/  5/  6 1017.0
2 E DUCK         NOT AVBL
OREGON INLET     1200   50 55  240/  2/  3 1017.7
13E OREGON INLT  NOT AVBL
HATTERAS CG      1200   51 60   70/  3/  4 1017.0
DIAMOND BUOY     1150   57 78  350/  6/  8 1017.7    4/ 9   5/ 9
CAPE LOOKOUT     1200   57      80/  4/  4 1017.0
BEAUFORT LAB     1200   53 55   60/  1/  1 1016.3
30 SE NEW RVR IN 1208   61 70  260/ 16/ 19 1017.5
30 SE NEW RVR IN NOT AVBL
27 SE WRIGHTSVLE 1208   58 67  270/ 14/ 17 1017.5
5 SE WRIGHTSVLE  1208   50 61  260/ 12/ 21 1017.6
225 S CAPE HAT   1150   71 73  230/  4/  6 1017.7    5/11   5/11
41 SE CHARLESTON 1150   64 74   CALM  /  2 1017.7    2/ 6   2/ 6

$$



USA.gov is the U.S. government's official web portal to all federal, state and local government web resources and services.